Saginaw, MI

10:43 PM EDT on July 25, 2017 (GMT -0400)
MBS International

Weather History for KMBS - October, 2014

Change the Weather History Date:

Friday, October 3, 2014

  Actual Average Record
Temperature  
Mean Temperature 59 °F 54 °F  
Max Temperature 68 °F 65 °F 87 °F (2005)
Min Temperature 50 °F 44 °F 32 °F (1996)
Degree Days  
Heating Degree Days 6    
Month to date heating degree days 14  
Since 1 July heating degree days 180  
Cooling Degree Days 0    
Month to date cooling degree days 0  
Year to date cooling degree days 538  
Growing Degree Days 10 (Base 50)    
Moisture  
Dew Point 57 °F    
Average Humidity 77    
Maximum Humidity 87    
Minimum Humidity 67    
Precipitation  
Precipitation 0.63 in 0.10 in 0.63 in (2014)
Month to date precipitation 0.80 0.30  
Year to date precipitation 26.60 24.65  
Snow  
Snow 0.00 in - - ()
Month to date snowfall 0.0  
Since 1 July snowfall 0.0  
Since 1 September snowfall 0.0  
Snow Depth 0.00 in    
Sea Level Pressure  
Sea Level Pressure 29.52 in    
Wind  
Wind Speed 14 mph (SSW)    
Max Wind Speed 28 mph    
Max Gust Speed 35 mph    
Visibility 8 miles    
Events Rain , Thunderstorm    
T = Trace of Precipitation, MM = Missing Value Source: NWS Daily Summary

Daily Weather History Graph

Daily Weather History Graph

Search for Another Location

Airport or City:

Trip Planner

Search our weather history database for the weather conditions in past years. The results will help you decide how hot, cold, wet, or windy it might be!

Date:

Astronomy

Oct. 03, 2014 Rise Set
Actual Time 7:36 AM EDT 7:13 PM EDT
Civil Twilight 7:07 AM EDT 7:42 PM EDT
Nautical Twilight 6:34 AM EDT 8:15 PM EDT
Astronomical Twilight 6:00 AM EDT 8:48 PM EDT
Moon 4:14 PM EDT (10/3) 1:46 AM EDT (10/3)
Length of Visible Light 12h 34m
Length of Day
11h 37m
Waxing Gibbous, 71% of the Moon is Illuminated
Oct 3
Waxing Gibbous
Oct 8
Full
Oct 15
Last Quarter
Oct 23
New
Oct 30
First Quarter

Hourly Weather History & Observations

Time (EDT) Temp. Dew Point Humidity Pressure Visibility Wind Dir Wind Speed Gust Speed Precip Events Conditions
12:45 AM 66.9 °F 62.1 °F 84% 29.76 in 10.0 mi South 11.5 mph - 0.03 in Rain , Thunderstorm Rain
12:53 AM 66.9 °F 62.1 °F 84% 29.75 in 10.0 mi South 16.1 mph - 0.06 in Rain , Thunderstorm Heavy Rain
1:10 AM 66.0 °F 63.0 °F 90% 29.75 in 8.0 mi South 15.0 mph - 0.11 in Rain , Thunderstorm Thunderstorms and Rain
1:23 AM 66.0 °F 63.0 °F 90% 29.73 in 10.0 mi South 8.1 mph - 0.13 in Rain Light Rain
1:53 AM 66.0 °F 63.0 °F 90% 29.72 in 10.0 mi South 9.2 mph - 0.15 in Rain Light Rain
2:17 AM 66.0 °F 63.0 °F 90% 29.71 in 10.0 mi South 11.5 mph - 0.03 in Rain , Thunderstorm Light Rain
2:36 AM 66.0 °F 63.0 °F 90% 29.72 in 10.0 mi SW 11.5 mph - 0.06 in Rain Rain
2:53 AM 66.0 °F 63.0 °F 90% 29.68 in 10.0 mi SW 5.8 mph - 0.08 in Rain Light Rain
3:53 AM 64.0 °F 62.1 °F 93% 29.63 in 10.0 mi SSE 6.9 mph - 0.00 in   Mostly Cloudy
4:53 AM 64.0 °F 62.1 °F 93% 29.59 in 5.0 mi East 4.6 mph - 0.00 in Rain Light Rain
5:53 AM 64.9 °F 62.1 °F 90% 29.54 in 10.0 mi ESE 6.9 mph - 0.02 in   Overcast
6:53 AM 66.0 °F 61.0 °F 84% 29.49 in 10.0 mi SSE 11.5 mph - 0.00 in   Overcast
7:28 AM 66.9 °F 61.0 °F 81% 29.46 in 10.0 mi South 11.5 mph - 0.00 in Rain , Thunderstorm Light Thunderstorms and Rain
7:46 AM 66.9 °F 62.1 °F 84% 29.44 in 10.0 mi SE 12.7 mph - 0.03 in Rain , Thunderstorm Light Rain
7:53 AM 66.9 °F 61.0 °F 81% 29.43 in 10.0 mi SSE 16.1 mph - 0.04 in Rain Light Rain
8:24 AM 66.9 °F 62.1 °F 84% 29.43 in 1.5 mi South 15.0 mph - 0.05 in Rain , Thunderstorm Light Rain
8:38 AM 66.0 °F 62.1 °F 87% 29.41 in 1.5 mi South 15.0 mph 24.2 mph 0.11 in Rain Rain
8:45 AM 66.9 °F 62.1 °F 84% 29.40 in 2.5 mi SSE 18.4 mph - 0.12 in Rain Rain
8:49 AM 66.2 °F 62.6 °F 88% 29.40 in 10.0 mi SSE 20.7 mph 26.5 mph 0.13 in Rain Light Rain
8:53 AM 66.2 °F 62.6 °F 88% 29.40 in 4.0 mi SSE 17.3 mph 26.5 mph N/A Rain Light Rain
9:42 AM 66.9 °F 63.0 °F 87% 29.36 in 10.0 mi SSE 20.7 mph 29.9 mph 0.04 in Rain Light Rain
9:53 AM 66.9 °F 63.0 °F 87% 29.36 in 1.5 mi South 19.6 mph 32.2 mph 0.09 in Rain Rain
10:06 AM 66.2 °F 62.6 °F 88% 29.36 in 1.5 mi SSE 20.7 mph 29.9 mph N/A Rain Light Rain
10:17 AM 66.9 °F 63.0 °F 87% 29.35 in 1.5 mi SSE 18.4 mph 28.8 mph 0.09 in Rain Rain
10:37 AM 66.9 °F 64.0 °F 90% 29.36 in 1.5 mi South 20.7 mph 29.9 mph 0.14 in Rain Rain
10:53 AM 66.9 °F 63.0 °F 87% 29.36 in 1.5 mi SSW 19.6 mph 29.9 mph 0.15 in Rain Light Rain
11:08 AM 66.9 °F 63.0 °F 87% 29.36 in 1.5 mi South 15.0 mph - 0.01 in Rain Light Rain
11:27 AM 66.9 °F 63.0 °F 87% 29.36 in 10.0 mi SSW 16.1 mph - 0.02 in Rain Light Rain
11:43 AM 66.9 °F 63.0 °F 87% 29.36 in 10.0 mi SSW 16.1 mph 31.1 mph 0.02 in   Overcast
11:53 AM 68.0 °F 63.0 °F 84% 29.36 in 10.0 mi SSW 17.3 mph 24.2 mph 0.02 in   Overcast
12:09 PM 68.0 °F 62.1 °F 81% 29.38 in 10.0 mi SW 23.0 mph 29.9 mph N/A   Overcast
12:35 PM 66.9 °F 60.1 °F 79% 29.39 in 10.0 mi WSW 19.6 mph 28.8 mph N/A   Overcast
12:53 PM 66.9 °F 60.1 °F 79% 29.40 in 10.0 mi WSW 26.5 mph 31.1 mph N/A   Overcast
1:53 PM 63.0 °F 55.0 °F 75% 29.46 in 10.0 mi West 21.9 mph 28.8 mph N/A   Overcast
2:04 PM 64.0 °F 55.0 °F 73% 29.45 in 10.0 mi West 18.4 mph - 0.00 in Rain Light Rain
2:53 PM 63.0 °F 53.1 °F 70% 29.48 in 10.0 mi West 18.4 mph 27.6 mph 0.00 in   Overcast
3:53 PM 62.1 °F 53.1 °F 72% 29.52 in 10.0 mi WSW 15.0 mph - N/A   Overcast
4:53 PM 62.1 °F 52.0 °F 70% 29.53 in 10.0 mi West 18.4 mph - 0.00 in   Mostly Cloudy
5:11 PM 61.0 °F 52.0 °F 72% 29.54 in 10.0 mi West 18.4 mph 26.5 mph N/A   Mostly Cloudy
5:31 PM 61.0 °F 51.1 °F 70% 29.56 in 10.0 mi West 18.4 mph 35.7 mph N/A   Mostly Cloudy
5:53 PM 60.1 °F 50.0 °F 69% 29.56 in 10.0 mi West 17.3 mph 26.5 mph N/A   Mostly Cloudy
6:04 PM 59.0 °F 50.0 °F 72% 29.57 in 10.0 mi West 18.4 mph 25.3 mph N/A   Mostly Cloudy
6:53 PM 57.0 °F 48.9 °F 74% 29.59 in 10.0 mi West 11.5 mph - 0.00 in   Overcast
7:53 PM 57.0 °F 48.9 °F 74% 29.60 in 10.0 mi West 11.5 mph - 0.00 in Rain Light Rain
8:53 PM 55.0 °F 46.9 °F 74% 29.61 in 10.0 mi West 15.0 mph - 0.00 in   Scattered Clouds
9:22 PM 54.0 °F 46.9 °F 77% 29.62 in 10.0 mi West 13.8 mph - N/A   Mostly Cloudy
9:34 PM 53.1 °F 46.9 °F 80% 29.62 in 10.0 mi West 11.5 mph - N/A   Mostly Cloudy
9:43 PM 54.0 °F 46.9 °F 77% 29.62 in 10.0 mi WSW 11.5 mph - N/A   Mostly Cloudy
9:53 PM 54.0 °F 46.9 °F 77% 29.62 in 10.0 mi WSW 11.5 mph - N/A   Overcast
10:15 PM 53.6 °F 46.4 °F 77% 29.62 in 10.0 mi West 9.2 mph - N/A   Overcast
10:53 PM 53.1 °F 45.0 °F 74% 29.61 in 10.0 mi West 11.5 mph - N/A   Overcast
11:20 PM 52.0 °F 44.1 °F 74% 29.60 in 10.0 mi West 13.8 mph - N/A   Overcast
11:53 PM 51.1 °F 43.0 °F 74% 29.59 in 10.0 mi West 15.0 mph - N/A   Scattered Clouds